HST

Last updated on Thu Dec 18 2025 00:02:15 GMT+0000 (Coordinated Universal Time)

1 20580U 90037B 25351.10253682 .00005953 00000+0 20311-3 0 9998 2 20580 28.4677 242.7933 0001895 295.0426 64.9973 15.28113078760661
UTC large
Height (km)
Speed (km/s)
/
Latitude / Longitude
Inclination (degrees)
Orbital Period (minutes)
Azimuth
Elevation
Range (km)
Doppler Factor

Next 0 passes for location: London (51.5072 / 0.1276)

Sorry there are no passes over London.